Location: Untermarchtal
(48.2403°N, 9.6117°E)
Time: 19:03:22
(UTC+01:00)

Envisat - Visible Passes

Search period start: 24 February 2018 00:00
Search period end: 06 March 2018 00:00
Orbit: 764 x 766 km, 98.2° (Epoch: 24 February)

Date Brightness Start Highest point End Pass type
(mag) Time Alt. Az. Time Alt. Az. Time Alt. Az.
24 Feb 3.0 19:43:58 10° SSE 19:49:03 86° WSW 19:54:10 10° NNW visible
24 Feb 5.9 21:26:45 10° WSW 21:28:50 12° W 21:30:57 10° WNW visible
25 Feb 3.2 19:07:34 10° SE 19:12:25 47° ENE 19:17:17 10° N visible
25 Feb 5.0 20:47:28 10° SSW 20:51:40 26° W 20:55:53 10° NW visible
26 Feb 4.0 18:31:53 10° ESE 18:35:58 25° ENE 18:40:04 10° N visible
26 Feb 3.7 20:09:45 10° S 20:14:42 52° W 20:19:41 10° NNW visible
27 Feb 2.9 19:32:51 10° SSE 19:37:56 78° ENE 19:43:01 10° NNW visible
27 Feb 5.7 21:14:33 10° SW 21:17:33 16° W 21:20:34 10° NW visible
28 Feb 3.5 18:56:39 10° SE 19:01:21 39° ENE 19:06:03 10° N visible
28 Feb 4.7 20:35:56 10° SSW 20:40:26 31° W 20:44:58 10° NNW visible
01 Mar 3.4 19:58:29 10° S 20:03:32 65° W 20:08:35 10° NNW visible
02 Mar 3.0 19:21:48 10° SSE 19:26:48 63° ENE 19:31:51 10° N visible
02 Mar 5.4 21:02:40 10° SW 21:06:16 19° W 21:09:54 10° NW visible
03 Mar 3.7 18:45:49 10° SE 18:50:17 32° ENE 18:54:46 10° N visible
03 Mar 4.3 20:24:29 10° SSW 20:29:13 39° W 20:33:59 10° NNW visible
04 Mar 3.1 19:47:17 10° S 19:52:22 80° WSW 19:57:29 10° NNW visible
04 Mar 5.9 21:30:40 10° WSW 21:32:14 11° W 21:33:46 10° WNW visible
05 Mar 3.2 19:10:48 10° SE 19:15:42 52° ENE 19:20:39 10° N visible
05 Mar 5.2 20:50:58 10° SW 20:55:01 24° W 20:59:06 10° NW visible
